Home > Weather > Callao > Past weeks

Flag for Peru Past Weather in Callao, Callao, Peru — Yesterday and Last 2 Weeks

Now
64 °F

Overcast.


Feels Like: 64 °F
Forecast: N/A
Wind: 6 mph from West

Location: Pisco Airport

Current Time: Jul 23, 2016 at 4:24:49 PM

Latest Report: Jul 23, 2016 at 4:00 PM


Visibility: N/A

Pressure: 29.92 "Hg

Humidity: 78%

Dew Point: 57 °F

Location of CallaoLocation

Past Weather in Callao — Graph

°F

Callao Temperature Yesterday

Maximum temperature yesterday: 64 °F (at 12:00 PM)
Minimum temperature yesterday: 61 °F (at 7:00 AM)
Average temperature yesterday: 63 °F

High & Low Weather Summary for the Past Weeks

 TemperatureHumidityPressure
High70 °F (Jul 11, 12:00 PM)94% (Jul 9, 6:00 AM)30.07 "Hg (Jul 9, 6:00 AM)
Low55 °F (Jul 14, 2:00 AM)69% (Jul 13, 5:00 PM)29.89 "Hg (Jul 8, 3:00 PM)
Average63 °F85%29.98 "Hg
* Reported Jul 8 3:00 PM — Jul 23 3:00 PM, Callao, Weather by CustomWeather, © 2016

Note: Actual official high and low records may vary slightly from our data, if they occured in-between our weather recording intervals... More about our weather records

Advertising

Callao Weather History for the Previous 24 Hours

Scroll right to see more
 ConditionsComfort  
Time TempWeatherWind HumidityBarometerVisibility
3:00 PM
Sat, Jul 23
64 °FMore clouds than sun.5 mph78%29.92 "HgN/A
2:00 PM64 °FMore clouds than sun.9 mph78%29.92 "HgN/A
1:00 PM64 °FMostly cloudy.9 mph78%29.95 "HgN/A
12:00 PM64 °FOvercast.7 mph78%29.98 "Hg4 mi
11:00 AM64 °FOvercast.5 mph78%30.01 "Hg5 mi
10:00 AM63 °FOvercast.6 mph83%30.04 "Hg4 mi
9:00 AM63 °FOvercast.6 mph83%30.01 "Hg4 mi
8:00 AM63 °FOvercast.2 mph77%30.01 "Hg4 mi
7:00 AM61 °FFog.5 mph88%29.98 "Hg3 mi
6:00 AM61 °FOvercast.7 mph83%29.95 "Hg4 mi
5:00 AM63 °FOvercast.6 mph77%29.95 "Hg5 mi
4:00 AM63 °FOvercast.5 mph83%29.95 "Hg5 mi
3:00 AM63 °FOvercast.8 mph77%29.95 "Hg5 mi
2:00 AM64 °FOvercast.10 mph78%29.98 "HgN/A
1:00 AM63 °FOvercast.6 mph83%30.01 "HgN/A
12:00 AM63 °FOvercast.3 mph83%30.01 "HgN/A
11:00 PM
Fri, Jul 22
63 °FOvercast.5 mph83%30.01 "HgN/A
10:00 PM63 °FOvercast.2 mph83%30.04 "HgN/A
9:00 PM63 °FOvercast.3 mph83%30.01 "HgN/A
8:00 PM63 °FOvercast.5 mph83%30.01 "HgN/A
7:00 PM63 °FOvercast.2 mph83%30.01 "HgN/A
6:00 PM63 °FOvercast.3 mph83%30.01 "HgN/A
5:00 PM63 °FOvercast.6 mph88%30.01 "HgN/A
4:00 PM64 °FOvercast.9 mph83%30.01 "HgN/A
Weather by CustomWeather, © 2016

See weather overviewHow to use our weather pages